Regional Weather Roundup
Issued by NWS

Home | Current Version | Previous Version | Text Only | Print | Product List | Glossary Off
Versions: 1 2 3 4 5 6 7 8 9 10 11 12 13 14 15 16 17 18 19 20 21 22 23 24 25 26 27 28 29 30

000
ASUS45 KCYS 181310
RWRWY

WYOMING REGIONAL WEATHER ROUNDUP
NATIONAL WEATHER SERVICE CHEYENNE WY
700 AM MDT WED APR 18 2018

NOTE:  "FAIR" INDICATES FEW OR NO CLOUDS BELOW 12,000 FEET
WITH NO SIGNIFICANT WEATHER AND/OR OBSTRUCTIONS TO VISIBILITY.

WYZ001-181400-
YELLOWSTONE NATIONAL PARK

CITY           SKY/WX    TMP DP  RH WIND       PRES   REMARKS
LK YELLOWSTONE   N/A      8   4  83 CALM      30.24R
W YELLOWSTONE  NOT AVBL

$$
WYZ002>013-054>058-071-098>099-181400-
NORTHERN WYOMING

CITY           SKY/WX    TMP DP  RH WIND       PRES   REMARKS
JACKSON        FAIR      13  11  92 E6        30.26R WCI   4
CODY           FAIR      34  16  47 W9        30.20R WCI  27
GREYBULL       FAIR      30  29  96 CALM      30.22R
WORLAND        FAIR      25  23  92 S3        30.21R
SHERIDAN       FAIR      29  22  75 W3        30.21R
BUFFALO        FAIR      34  19  54 NW6       30.19R WCI  29
GILLETTE       FAIR      32  25  75 W13       30.17R WCI  22
HULETT         PTSUNNY   34  28  80 W3        30.16R
NEWCASTLE      FAIR      32  27  80 N12       30.15R WCI  23

$$
WYZ014>020-022>026-101>103-181400-
CENTRAL WYOMING

CITY           SKY/WX    TMP DP  RH WIND       PRES   REMARKS
BIG PINEY      FAIR       6   2  83 N3        30.26R
PINEDALE       FAIR      12  10  92 NW5       30.27R WCI   4
DUBOIS         FAIR      21  14  73 NW9       30.20R WCI  11
LANDER         FAIR      23  13  65 NE3       30.20R
RIVERTON       FAIR      23  10  57 SW7       30.21R WCI  15
CASPER         FAIR      18  16  92 SW3       30.22R
DOUGLAS        FAIR      27  22  81 NW14      30.21R WCI  16

$$
WYZ021-027>030-104>119-181400-
SOUTHERN WYOMING

CITY           SKY/WX    TMP DP  RH WIND       PRES   REMARKS
EVANSTON       FAIR      21  12  68 S3        30.23S
KEMMERER       FAIR      18  12  79 NW9       30.24S WCI   6
FORT BRIDGER   FAIR      19  12  72 W6        30.27S WCI  11
ROCK SPRINGS   FAIR      20  11  68 W5        30.25S WCI  13
DIXON          FAIR      15  10  82 SE5       30.32S WCI   7
RAWLINS        FAIR      23  14  68 W10       30.25R WCI  12
SARATOGA       FAIR      19  14  79 SE3       30.27R HAZE
LARAMIE        FAIR      19  11  70 W14       30.19R WCI   6
CHEYENNE       FAIR      30  15  53 NW20G32   30.17R WCI  17
TORRINGTON     FAIR      30  24  78 W8        30.16R WCI  22
PINE BLUFFS    FAIR      32  19  59 MISG      30.17R

$$




USA.gov is the U.S. government's official web portal to all federal, state and local government web resources and services.